Location: Eboldshausen
(51.7766°N, 10.0050°E)
Time: 17:15:21
(UTC+00:00)

ARIANE 5 R/B - Pass Details

Date: 15 November 2025
Orbit: 747 x 792 km, 98.8° (Epoch: 10 December)

Event Time Altitude Azimuth Distance (km) Brightness Sun altitude
Rises 16:12:19 0° 149° (SSE) 3,182 5.6 -6.8°
Reaches altitude 10° 16:14:37 10° 145° (SE) 2,262 4.8 -7.1°
Maximum altitude 16:19:28 57° 68° (ENE) 886 2.5 -7.8°
Drops below altitude 10° 16:24:22 10° 351° (N) 2,285 4.9 -8.6°
Sets 16:26:42 0° 348° (NNW) 3,219 5.7 -8.9°
